loading
|

WESTFORD NEEDLES, 3257

Orbit data source: Space-Track

WESTFORD NEEDLES, 3257 is space debris originally from a launch on Thu, 09 May 1963 UTC launched from the Air Force Western Test Range (AFWTR). Debris objects in space refer to the collection of defunct objects orbiting the Earth. Examples of debris include non-operational satellites, rocket bodies, and fragments generated from explosions, collisions, or faulty payload assembly.

Loading next visibility...
Loading greatness...
WESTFORD NEEDLES details
Identifier
3257, 1963-014BX
Orbit
Active
Last TLE update2 days ago
Origin
Flag of USUSAF SSD (US)
ManufacturerUnknown
MissionSpacecraft
Bus & MotorUnknown bus, Unknown motor
MassUnknown
Launch date (UTC)
1963-05-09 (61 years ago)
Launch vehicleUnknown
Launch site
Air Force Western Test Range (AFWTR)
Object type
Payload
Rocket body
Debris
Shape & HBRUnknown
Radar Cross SectionMedium (>0.1 m² and <1 m²)

Expand to show TLE details & history

TLE from 2 days ago
0 WESTFORD NEEDLES
1  3257U 63014BX  24283.23005168  .00000801  00000-0  37146+0 0  9994
2  3257  87.3619 206.2997 0132474  36.4780 324.5014  8.65107205345709
Epoch: 2024-10-09T05:31Z
Definitive object data (Epoch: 2024-10-09T05:31:16.465Z)
Latitude0.00001°
Longitude105.14916°
Altitude3,540.093 km
Speed6.374 km/s
True Right ascension13h 45m 11s
True Declination0° 00' 00"
Sunlit
Object was in daylight at TLE epoch
Predictive object data (real-time)
Latitude34.09611°
Longitude106.76504°
Altitude3,516.621 km
Speed6.392 km/s
Apparent Right ascension11h 25m 28s
Apparent Declination11° 46' 43"
Sunlit
Object is in daylight
Predictive observer data (real-time)
Local Sidereal Time17:43:56
Azimuth281.985° WNW
Elevation4.044°
Doppler factor1
Orbital elements
Apogee3,776.001 km
Perigee3,510.486 km
Semi-major axis10,021.381 km
Eccentricity0.0132474
Inclination87.3619°
RAAN206.2997°
Arg. of periapsis36.478°
True anomaly323.6079°
Mean anomaly324.5014°
Eccentric anomaly324.05586°
Mean motion2.16347 °/min
BSTAR0.37146
Period166.4 mins
No data available

WESTFORD NEEDLES Visibility forecast

Observer location: 39.9160978°, -105.1181434

WESTFORD NEEDLES is not visible in the next 10 days
Span
Click to sort rows by Start time (UTC) header in descending order
Start Az.
Max El. time (UTC)
Max El. Az.
Max El.
End time (UTC)
End Az.